Location: Unspecified
(0.0000°N, 0.0000°E)
Time: 20:55:27
(UTC+00:00)

STARLINK-1265 - Visible Passes

Search period start: 12 January 2025 00:00
Search period end: 22 January 2025 00:00
Orbit: 546 x 548 km, 53.1° (Epoch: 12 January)

Date Brightness Start Highest point End Pass type
(mag) Time Alt. Az. Time Alt. Az. Time Alt. Az.
12 Jan 5.4 20:04:14 10° WNW 20:07:53 31° SW 20:11:24 11° S visible
13 Jan 6.2 19:58:29 10° WNW 20:01:34 20° SW 20:04:39 10° S visible
14 Jan 6.9 19:53:14 10° W 19:55:15 13° SW 19:57:17 10° SSW visible
19 Jan 6.8 04:06:16 10° SSE 04:08:14 13° SE 04:10:12 10° E visible
19 Jan 4.4 05:43:53 10° WSW 05:47:33 31° NW 05:51:13 10° N visible
20 Jan 6.2 03:58:53 10° S 04:01:57 20° SE 04:05:00 10° ENE visible
20 Jan 4.9 05:38:11 10° WSW 05:41:15 20° NW 05:44:20 10° N visible
21 Jan 5.9 03:57:32 21° E 03:57:32 21° E 03:59:19 10° ENE visible
21 Jan 5.4 05:33:24 11° W 05:34:58 13° NW 05:36:59 10° NNW visible
